PTR2948 KBOS-CYTZ

Flight info

Callsign PTR2948
Flight time 1h 34m
Altitude 22000
Route LOGAN4 HYLND DCT WAYGO DCT ALVID DCT ILIXU ILIXU1
Aircraft DH8D/M-SDE2E3FGRY/H

Departure

Time 2026-05-09 00:55
Airport Boston Logan International Airport (KBOS)

Arrival

Time 2026-05-09 02:29
Airport Billy Bishop Toronto City Airport (CYTZ)
Time Latitude Longitude Altitude Speed Heading
2026-05-09 00:28 42.37046 -71.01792 27 ft 0 kts 207°
2026-05-09 00:42 42.37065 -71.01778 27 ft 4 kts 208°
2026-05-09 00:42 42.37087 -71.01762 27 ft 3 kts 208°
2026-05-09 00:42 42.37110 -71.01752 27 ft 4 kts 171°
2026-05-09 00:43 42.37132 -71.01769 27 ft 4 kts 129°
2026-05-09 00:43 42.37141 -71.01787 27 ft 1 kts 123°
2026-05-09 00:43 42.37142 -71.01789 27 ft 0 kts 123°
2026-05-09 00:47 42.37134 -71.01767 27 ft 4 kts 107°
2026-05-09 00:47 42.37138 -71.01699 27 ft 10 kts 76°
2026-05-09 00:48 42.37125 -71.01595 27 ft 14 kts 134°
2026-05-09 00:48 42.37052 -71.01497 27 ft 16 kts 135°
2026-05-09 00:48 42.36973 -71.01391 27 ft 17 kts 135°
2026-05-09 00:48 42.36891 -71.01282 27 ft 17 kts 135°
2026-05-09 00:49 42.36807 -71.01170 27 ft 17 kts 142°
2026-05-09 00:49 42.36709 -71.01154 27 ft 15 kts 199°
2026-05-09 00:49 42.36610 -71.01202 27 ft 15 kts 200°
2026-05-09 00:49 42.36509 -71.01251 27 ft 16 kts 199°
2026-05-09 00:50 42.36407 -71.01301 27 ft 16 kts 200°
2026-05-09 00:50 42.36330 -71.01302 27 ft 8 kts 128°
2026-05-09 00:50 42.36299 -71.01236 27 ft 9 kts 122°
2026-05-09 00:50 42.36262 -71.01152 27 ft 12 kts 117°
2026-05-09 00:51 42.36226 -71.01043 27 ft 15 kts 115°
2026-05-09 00:51 42.36182 -71.00911 27 ft 17 kts 115°
2026-05-09 00:51 42.36153 -71.00821 27 ft 0 kts 115°
2026-05-09 00:52 42.36149 -71.00808 27 ft 5 kts 115°
2026-05-09 00:52 42.36124 -71.00721 27 ft 14 kts 99°
2026-05-09 00:52 42.36150 -71.00679 27 ft 1 kts 20°
2026-05-09 00:54 42.36209 -71.00650 27 ft 38 kts 20°
2026-05-09 00:54 42.36691 -71.00419 27 ft 110 kts 19°
2026-05-09 00:55 42.37515 -71.00001 301 ft 127 kts 19°
2026-05-09 00:55 42.38359 -70.99705 907 ft 125 kts 357°
2026-05-09 00:55 42.39267 -70.99854 1342 ft 138 kts 342°
2026-05-09 00:55 42.40225 -71.00159 1879 ft 146 kts 342°
2026-05-09 00:56 42.41257 -71.00439 2454 ft 153 kts 344°
2026-05-09 00:56 42.42328 -71.00702 3000 ft 160 kts 344°
2026-05-09 00:56 42.43440 -71.00973 3577 ft 170 kts 345°
2026-05-09 00:56 42.44637 -71.01367 3911 ft 187 kts 336°
2026-05-09 00:57 42.45827 -71.02164 3976 ft 199 kts 327°
2026-05-09 00:57 42.47029 -71.03107 3994 ft 211 kts 327°
2026-05-09 00:57 42.48312 -71.04119 3999 ft 220 kts 328°
2026-05-09 00:57 42.49644 -71.05172 4001 ft 228 kts 328°
2026-05-09 00:58 42.51018 -71.06251 4035 ft 232 kts 328°
2026-05-09 00:58 42.52371 -71.07312 4369 ft 221 kts 328°
2026-05-09 00:58 42.53667 -71.08324 4737 ft 211 kts 327°
2026-05-09 00:58 42.54759 -71.09183 5082 ft 202 kts 327°
2026-05-09 00:59 42.55927 -71.10103 5476 ft 192 kts 327°
2026-05-09 00:59 42.57059 -71.10994 5787 ft 187 kts 327°
2026-05-09 00:59 42.58171 -71.11870 6047 ft 184 kts 327°
2026-05-09 00:59 42.59271 -71.12731 6273 ft 184 kts 328°
2026-05-09 01:00 42.60383 -71.13603 6481 ft 184 kts 327°
2026-05-09 01:00 42.61523 -71.14490 6789 ft 191 kts 326°
2026-05-09 01:00 42.62679 -71.15387 7518 ft 190 kts 326°
2026-05-09 01:00 42.63793 -71.16251 8242 ft 189 kts 326°
2026-05-09 01:01 42.64948 -71.17144 8962 ft 189 kts 326°
2026-05-09 01:01 42.66099 -71.18032 9656 ft 190 kts 325°
2026-05-09 01:01 42.67258 -71.18921 10369 ft 190 kts 324°
2026-05-09 01:01 42.68422 -71.19809 11085 ft 189 kts 324°
2026-05-09 01:02 42.69577 -71.20688 11763 ft 187 kts 323°
2026-05-09 01:02 42.70729 -71.21565 12389 ft 187 kts 323°
2026-05-09 01:02 42.71824 -71.22411 12933 ft 187 kts 322°
2026-05-09 01:02 42.72953 -71.23317 13456 ft 188 kts 321°
2026-05-09 01:03 42.74088 -71.24249 13971 ft 189 kts 321°
2026-05-09 01:03 42.75174 -71.25141 14461 ft 190 kts 321°
2026-05-09 01:03 42.76260 -71.26044 14938 ft 187 kts 318°
2026-05-09 01:03 42.77146 -71.27253 15399 ft 184 kts 303°
2026-05-09 01:04 42.78063 -71.28508 15856 ft 191 kts 317°
2026-05-09 01:04 42.79217 -71.29407 16308 ft 194 kts 324°
2026-05-09 01:04 42.80439 -71.30228 16732 ft 195 kts 325°
2026-05-09 01:04 42.81662 -71.31055 17151 ft 196 kts 325°
2026-05-09 01:05 42.82858 -71.31870 17539 ft 197 kts 324°
2026-05-09 01:05 42.84089 -71.32712 17931 ft 197 kts 324°
2026-05-09 01:05 42.86537 -71.34398 18661 ft 199 kts 324°
2026-05-09 01:06 42.87775 -71.35249 19016 ft 200 kts 324°
2026-05-09 01:06 42.88909 -71.36188 19331 ft 192 kts 309°
2026-05-09 01:06 42.89544 -71.37732 19679 ft 190 kts 287°
2026-05-09 01:06 42.89850 -71.39412 20010 ft 190 kts 284°
2026-05-09 01:07 42.90166 -71.41080 20322 ft 191 kts 286°
2026-05-09 01:07 42.90526 -71.42780 20640 ft 191 kts 287°
2026-05-09 01:07 42.90890 -71.44441 20933 ft 192 kts 287°
2026-05-09 01:07 42.91261 -71.46135 21232 ft 193 kts 287°
2026-05-09 01:08 42.91636 -71.47850 21524 ft 193 kts 287°
2026-05-09 01:08 42.92012 -71.49570 21796 ft 195 kts 287°
2026-05-09 01:08 42.92376 -71.51241 21907 ft 203 kts 287°
2026-05-09 01:08 42.92773 -71.53062 21929 ft 213 kts 287°
2026-05-09 01:09 42.93184 -71.54950 21939 ft 222 kts 287°
2026-05-09 01:09 42.93607 -71.56894 21942 ft 231 kts 287°
2026-05-09 01:09 42.94058 -71.58969 21941 ft 239 kts 287°
2026-05-09 01:09 42.94519 -71.61092 21941 ft 246 kts 287°
2026-05-09 01:10 42.95002 -71.63315 21940 ft 252 kts 287°
2026-05-09 01:10 42.95483 -71.65533 21940 ft 258 kts 287°
2026-05-09 01:10 42.95987 -71.67859 21946 ft 263 kts 287°
2026-05-09 01:10 42.96488 -71.70167 21948 ft 267 kts 287°
2026-05-09 01:11 42.96977 -71.72426 21948 ft 271 kts 287°
2026-05-09 01:11 42.97492 -71.74811 21949 ft 274 kts 287°
2026-05-09 01:11 42.98015 -71.77234 21949 ft 277 kts 287°
2026-05-09 01:11 42.98543 -71.79682 21949 ft 280 kts 287°
2026-05-09 01:12 42.99072 -71.82142 21949 ft 283 kts 287°
2026-05-09 01:12 42.99608 -71.84632 21949 ft 285 kts 287°
2026-05-09 01:12 43.00149 -71.87153 21949 ft 286 kts 287°
2026-05-09 01:12 43.00685 -71.89649 21949 ft 288 kts 287°
2026-05-09 01:13 43.01218 -71.92138 21949 ft 289 kts 287°
2026-05-09 01:13 43.01758 -71.94658 21949 ft 291 kts 287°
2026-05-09 01:13 43.02303 -71.97208 21949 ft 292 kts 287°
2026-05-09 01:13 43.02849 -71.99769 21949 ft 293 kts 287°
2026-05-09 01:14 43.03402 -72.02352 21950 ft 293 kts 287°
2026-05-09 01:14 43.03955 -72.04928 21952 ft 294 kts 286°
2026-05-09 01:14 43.04509 -72.07527 21953 ft 294 kts 286°
2026-05-09 01:14 43.05062 -72.10131 21954 ft 295 kts 286°
2026-05-09 01:15 43.05610 -72.12713 21954 ft 295 kts 286°
2026-05-09 01:15 43.06158 -72.15301 21954 ft 295 kts 286°
2026-05-09 01:15 43.06699 -72.17860 21955 ft 296 kts 286°
2026-05-09 01:15 43.07225 -72.20346 21955 ft 296 kts 286°
2026-05-09 01:16 43.07586 -72.22059 21955 ft 296 kts 286°
2026-05-09 01:16 43.08130 -72.24636 21955 ft 296 kts 286°
2026-05-09 01:16 43.08670 -72.27202 21955 ft 297 kts 286°
2026-05-09 01:17 43.09755 -72.32362 21955 ft 297 kts 286°
2026-05-09 01:17 43.10295 -72.34928 21953 ft 297 kts 286°
2026-05-09 01:17 43.10837 -72.37515 21953 ft 298 kts 286°
2026-05-09 01:17 43.11378 -72.40097 21952 ft 298 kts 286°
2026-05-09 01:18 43.11919 -72.42684 21951 ft 298 kts 286°
2026-05-09 01:18 43.12457 -72.45261 21951 ft 298 kts 286°
2026-05-09 01:18 43.12999 -72.47857 21950 ft 298 kts 286°
2026-05-09 01:18 43.13533 -72.50426 21949 ft 298 kts 286°
2026-05-09 01:19 43.14070 -72.53011 21948 ft 298 kts 286°
2026-05-09 01:19 43.14602 -72.55573 21948 ft 298 kts 286°
2026-05-09 01:19 43.15137 -72.58157 21948 ft 298 kts 286°
2026-05-09 01:19 43.15667 -72.60718 21948 ft 298 kts 286°
2026-05-09 01:20 43.16206 -72.63321 21948 ft 298 kts 286°
2026-05-09 01:20 43.16726 -72.65838 21948 ft 298 kts 286°
2026-05-09 01:20 43.17243 -72.68345 21948 ft 298 kts 286°
2026-05-09 01:20 43.17775 -72.70902 21948 ft 298 kts 286°
2026-05-09 01:21 43.18308 -72.73477 21948 ft 298 kts 286°
2026-05-09 01:21 43.18845 -72.76087 21948 ft 298 kts 286°
2026-05-09 01:21 43.19371 -72.78646 21948 ft 298 kts 286°
2026-05-09 01:21 43.19901 -72.81231 21947 ft 298 kts 286°
2026-05-09 01:22 43.20438 -72.83851 21948 ft 298 kts 286°
2026-05-09 01:22 43.20968 -72.86439 21948 ft 299 kts 286°
2026-05-09 01:22 43.21506 -72.89073 21947 ft 299 kts 286°
2026-05-09 01:22 43.22033 -72.91655 21947 ft 299 kts 286°
2026-05-09 01:23 43.22560 -72.94245 21947 ft 299 kts 286°
2026-05-09 01:23 43.23084 -72.96819 21947 ft 299 kts 285°
2026-05-09 01:23 43.23611 -72.99401 21948 ft 299 kts 285°
2026-05-09 01:23 43.24132 -73.01967 21948 ft 299 kts 285°
2026-05-09 01:24 43.24643 -73.04485 21948 ft 299 kts 285°
2026-05-09 01:24 43.25168 -73.07076 21948 ft 299 kts 285°
2026-05-09 01:24 43.25693 -73.09671 21948 ft 299 kts 285°
2026-05-09 01:24 43.26219 -73.12277 21947 ft 299 kts 285°
2026-05-09 01:25 43.26716 -73.14735 21947 ft 299 kts 285°
2026-05-09 01:25 43.27244 -73.17359 21947 ft 299 kts 285°
2026-05-09 01:25 43.27776 -73.20000 21947 ft 299 kts 285°
2026-05-09 01:25 43.28303 -73.22621 21947 ft 299 kts 285°
2026-05-09 01:26 43.28821 -73.25204 21947 ft 299 kts 285°
2026-05-09 01:26 43.29339 -73.27787 21947 ft 299 kts 285°
2026-05-09 01:26 43.29871 -73.30423 21947 ft 299 kts 285°
2026-05-09 01:26 43.30396 -73.33031 21947 ft 299 kts 285°
2026-05-09 01:27 43.30927 -73.35689 21947 ft 299 kts 285°
2026-05-09 01:27 43.31460 -73.38359 21947 ft 299 kts 285°
2026-05-09 01:27 43.31995 -73.41046 21946 ft 299 kts 285°
2026-05-09 01:27 43.32526 -73.43718 21946 ft 299 kts 285°
2026-05-09 01:28 43.33058 -73.46396 21946 ft 299 kts 285°
2026-05-09 01:28 43.33590 -73.49079 21947 ft 299 kts 285°
2026-05-09 01:28 43.34110 -73.51703 21945 ft 300 kts 285°
2026-05-09 01:28 43.34637 -73.54370 21944 ft 300 kts 285°
2026-05-09 01:29 43.35163 -73.57033 21944 ft 300 kts 285°
2026-05-09 01:29 43.35673 -73.59623 21944 ft 300 kts 285°
2026-05-09 01:29 43.36180 -73.62198 21944 ft 300 kts 285°
2026-05-09 01:29 43.36704 -73.64858 21944 ft 301 kts 285°
2026-05-09 01:30 43.37219 -73.67482 21944 ft 301 kts 285°
2026-05-09 01:30 43.37729 -73.70083 21944 ft 301 kts 285°
2026-05-09 01:30 43.38242 -73.72699 21944 ft 302 kts 285°
2026-05-09 01:30 43.38769 -73.75394 21944 ft 302 kts 285°
2026-05-09 01:31 43.39297 -73.78099 21945 ft 302 kts 285°
2026-05-09 01:31 43.39825 -73.80808 21945 ft 302 kts 285°
2026-05-09 01:31 43.40352 -73.83513 21945 ft 302 kts 285°
2026-05-09 01:31 43.40880 -73.86223 21945 ft 302 kts 285°
2026-05-09 01:32 43.41398 -73.88892 21946 ft 303 kts 285°
2026-05-09 01:32 43.41922 -73.91594 21945 ft 303 kts 285°
2026-05-09 01:32 43.42437 -73.94255 21946 ft 303 kts 285°
2026-05-09 01:32 43.42964 -73.96978 21946 ft 303 kts 285°
2026-05-09 01:33 43.43492 -73.99708 21944 ft 303 kts 285°
2026-05-09 01:33 43.44019 -74.02435 21944 ft 303 kts 285°
2026-05-09 01:33 43.44550 -74.05164 21944 ft 303 kts 285°
2026-05-09 01:33 43.45073 -74.07870 21944 ft 303 kts 285°
2026-05-09 01:34 43.45598 -74.10603 21944 ft 303 kts 285°
2026-05-09 01:34 43.46123 -74.13338 21944 ft 303 kts 285°
2026-05-09 01:34 43.46647 -74.16074 21944 ft 303 kts 285°
2026-05-09 01:34 43.47170 -74.18806 21944 ft 303 kts 285°
2026-05-09 01:35 43.47692 -74.21534 21944 ft 303 kts 285°
2026-05-09 01:35 43.48215 -74.24274 21945 ft 303 kts 285°
2026-05-09 01:35 43.48736 -74.27010 21946 ft 303 kts 285°
2026-05-09 01:35 43.49258 -74.29754 21946 ft 303 kts 285°
2026-05-09 01:36 43.49779 -74.32496 21947 ft 303 kts 284°
2026-05-09 01:36 43.50298 -74.35227 21948 ft 303 kts 284°
2026-05-09 01:36 43.50814 -74.37952 21949 ft 303 kts 284°
2026-05-09 01:36 43.51334 -74.40701 21950 ft 303 kts 284°
2026-05-09 01:37 43.51855 -74.43453 21950 ft 303 kts 284°
2026-05-09 01:37 43.52376 -74.46216 21951 ft 303 kts 284°
2026-05-09 01:37 43.52895 -74.48973 21951 ft 303 kts 284°
2026-05-09 01:37 43.53416 -74.51740 21950 ft 303 kts 284°
2026-05-09 01:38 43.53930 -74.54474 21950 ft 303 kts 284°
2026-05-09 01:38 43.54448 -74.57235 21948 ft 302 kts 284°
2026-05-09 01:38 43.54964 -74.59990 21947 ft 302 kts 284°
2026-05-09 01:38 43.55475 -74.62722 21947 ft 302 kts 284°
2026-05-09 01:39 43.55988 -74.65473 21946 ft 301 kts 284°
2026-05-09 01:39 43.56503 -74.68229 21945 ft 301 kts 284°
2026-05-09 01:39 43.57018 -74.70994 21942 ft 301 kts 284°
2026-05-09 01:39 43.57526 -74.73726 21942 ft 301 kts 284°
2026-05-09 01:40 43.58013 -74.76351 21941 ft 301 kts 284°
2026-05-09 01:40 43.58490 -74.78923 21941 ft 300 kts 284°
2026-05-09 01:40 43.58961 -74.81467 21940 ft 300 kts 284°
2026-05-09 01:40 43.59413 -74.83908 21940 ft 300 kts 284°
2026-05-09 01:41 43.59861 -74.86326 21940 ft 300 kts 284°
2026-05-09 01:41 43.60333 -74.88863 21940 ft 300 kts 284°
2026-05-09 01:41 43.60796 -74.91367 21939 ft 300 kts 284°
2026-05-09 01:41 43.61271 -74.93942 21939 ft 300 kts 284°
2026-05-09 01:42 43.61720 -74.96386 21939 ft 300 kts 284°
2026-05-09 01:42 43.62192 -74.98956 21940 ft 299 kts 284°
2026-05-09 01:42 43.62618 -75.01281 21940 ft 299 kts 284°
2026-05-09 01:42 43.63087 -75.03842 21940 ft 299 kts 284°
2026-05-09 01:43 43.63553 -75.06395 21940 ft 299 kts 284°
2026-05-09 01:43 43.64038 -75.09053 21940 ft 299 kts 284°
2026-05-09 01:43 43.64528 -75.11741 21939 ft 299 kts 284°
2026-05-09 01:43 43.65016 -75.14423 21938 ft 299 kts 284°
2026-05-09 01:44 43.65494 -75.17053 21938 ft 299 kts 284°
2026-05-09 01:44 43.65984 -75.19758 21937 ft 299 kts 284°
2026-05-09 01:44 43.66465 -75.22409 21936 ft 299 kts 284°
2026-05-09 01:44 43.66950 -75.25094 21935 ft 299 kts 284°
2026-05-09 01:45 43.67417 -75.27675 21934 ft 299 kts 284°
2026-05-09 01:45 43.67889 -75.30292 21933 ft 299 kts 284°
2026-05-09 01:45 43.68354 -75.32878 21932 ft 299 kts 284°
2026-05-09 01:45 43.68821 -75.35470 21931 ft 299 kts 284°
2026-05-09 01:46 43.69294 -75.38076 21930 ft 299 kts 284°
2026-05-09 01:46 43.69759 -75.40659 21929 ft 299 kts 284°
2026-05-09 01:46 43.70230 -75.43279 21928 ft 299 kts 284°
2026-05-09 01:46 43.70694 -75.45875 21927 ft 299 kts 284°
2026-05-09 01:47 43.71149 -75.48435 21926 ft 299 kts 284°
2026-05-09 01:47 43.71611 -75.51027 21923 ft 299 kts 284°
2026-05-09 01:47 43.72077 -75.53648 21921 ft 299 kts 284°
2026-05-09 01:47 43.72541 -75.56257 21920 ft 300 kts 284°
2026-05-09 01:48 43.73003 -75.58864 21919 ft 300 kts 284°
2026-05-09 01:48 43.73481 -75.61564 21917 ft 300 kts 284°
2026-05-09 01:48 43.73960 -75.64269 21917 ft 300 kts 284°
2026-05-09 01:48 43.74433 -75.66945 21916 ft 300 kts 284°
2026-05-09 01:49 43.74905 -75.69618 21915 ft 300 kts 283°
2026-05-09 01:49 43.75375 -75.72261 21914 ft 300 kts 284°
2026-05-09 01:49 43.75840 -75.74888 21915 ft 300 kts 283°
2026-05-09 01:49 43.76305 -75.77527 21917 ft 300 kts 283°
2026-05-09 01:50 43.76766 -75.80153 21917 ft 300 kts 283°
2026-05-09 01:50 43.77229 -75.82795 21917 ft 300 kts 283°
2026-05-09 01:50 43.77691 -75.85435 21917 ft 300 kts 283°
2026-05-09 01:50 43.78153 -75.88081 21918 ft 300 kts 283°
2026-05-09 01:51 43.78614 -75.90724 21918 ft 300 kts 283°
2026-05-09 01:51 43.79075 -75.93367 21919 ft 300 kts 283°
2026-05-09 01:51 43.79506 -75.95848 21919 ft 300 kts 283°
2026-05-09 01:51 43.79960 -75.98462 21920 ft 300 kts 283°
2026-05-09 01:52 43.80420 -76.01113 21920 ft 300 kts 283°
2026-05-09 01:52 43.80873 -76.03730 21921 ft 300 kts 283°
2026-05-09 01:52 43.81345 -76.06456 21924 ft 300 kts 283°
2026-05-09 01:52 43.81824 -76.09230 21926 ft 300 kts 283°
2026-05-09 01:53 43.82304 -76.12016 21927 ft 300 kts 283°
2026-05-09 01:53 43.82782 -76.14796 21927 ft 300 kts 283°
2026-05-09 01:53 43.83260 -76.17577 21927 ft 300 kts 283°
2026-05-09 01:53 43.83738 -76.20360 21927 ft 300 kts 283°
2026-05-09 01:54 43.84214 -76.23143 21927 ft 300 kts 283°
2026-05-09 01:54 43.84691 -76.25931 21927 ft 300 kts 283°
2026-05-09 01:54 43.85168 -76.28723 21928 ft 300 kts 283°
2026-05-09 01:54 43.85636 -76.31478 21928 ft 300 kts 283°
2026-05-09 01:55 43.86097 -76.34188 21928 ft 300 kts 283°
2026-05-09 01:55 43.86532 -76.36750 21928 ft 300 kts 283°
2026-05-09 01:55 43.87000 -76.39511 21928 ft 300 kts 283°
2026-05-09 01:55 43.87467 -76.42270 21928 ft 300 kts 283°
2026-05-09 01:56 43.87940 -76.45065 21928 ft 300 kts 283°
2026-05-09 01:56 43.88411 -76.47855 21928 ft 300 kts 283°
2026-05-09 01:56 43.88881 -76.50646 21928 ft 300 kts 283°
2026-05-09 01:56 43.89338 -76.53357 21929 ft 300 kts 283°
2026-05-09 01:57 43.89760 -76.55870 21929 ft 300 kts 283°
2026-05-09 01:57 43.90174 -76.58338 21929 ft 300 kts 283°
2026-05-09 01:57 43.90520 -76.60762 21928 ft 300 kts 279°
2026-05-09 01:57 43.90745 -76.63326 21929 ft 300 kts 277°
2026-05-09 01:58 43.90939 -76.66071 21929 ft 300 kts 276°
2026-05-09 01:58 43.91126 -76.68928 21929 ft 300 kts 276°
2026-05-09 01:58 43.91299 -76.71610 21929 ft 300 kts 276°
2026-05-09 01:58 43.91476 -76.74261 21929 ft 300 kts 276°
2026-05-09 01:59 43.91656 -76.76891 21929 ft 300 kts 276°
2026-05-09 01:59 43.91843 -76.79607 21929 ft 299 kts 276°
2026-05-09 01:59 43.92029 -76.82273 21929 ft 299 kts 276°
2026-05-09 01:59 43.92218 -76.84961 21929 ft 299 kts 276°
2026-05-09 02:00 43.92399 -76.87577 21929 ft 299 kts 276°
2026-05-09 02:00 43.92561 -76.89973 21929 ft 299 kts 276°
2026-05-09 02:00 43.92748 -76.92746 21929 ft 299 kts 276°
2026-05-09 02:00 43.92932 -76.95485 21929 ft 299 kts 276°
2026-05-09 02:01 43.93118 -76.98253 21928 ft 299 kts 276°
2026-05-09 02:01 43.93302 -77.00999 21928 ft 299 kts 276°
2026-05-09 02:01 43.93487 -77.03731 21928 ft 299 kts 276°
2026-05-09 02:01 43.93671 -77.06413 21927 ft 299 kts 276°
2026-05-09 02:02 43.93850 -77.09096 21927 ft 298 kts 276°
2026-05-09 02:02 43.94027 -77.11788 21927 ft 298 kts 276°
2026-05-09 02:02 43.94209 -77.14574 21926 ft 298 kts 276°
2026-05-09 02:02 43.94383 -77.17276 21925 ft 298 kts 276°
2026-05-09 02:03 43.94552 -77.19911 21924 ft 299 kts 276°
2026-05-09 02:03 43.94725 -77.22538 21923 ft 299 kts 276°
2026-05-09 02:03 43.94904 -77.25206 21923 ft 299 kts 276°
2026-05-09 02:03 43.95081 -77.27891 21922 ft 299 kts 276°
2026-05-09 02:04 43.95253 -77.30555 21922 ft 299 kts 276°
2026-05-09 02:04 43.95412 -77.33247 21919 ft 299 kts 274°
2026-05-09 02:04 43.95315 -77.35751 21920 ft 301 kts 264°
2026-05-09 02:04 43.94875 -77.38379 21921 ft 303 kts 258°
2026-05-09 02:05 43.94508 -77.40098 21921 ft 304 kts 257°
2026-05-09 02:05 43.93937 -77.42639 21920 ft 304 kts 256°
2026-05-09 02:05 43.93319 -77.45281 21920 ft 304 kts 256°
2026-05-09 02:05 43.92682 -77.47919 21920 ft 305 kts 255°
2026-05-09 02:06 43.92009 -77.50672 21920 ft 305 kts 255°
2026-05-09 02:06 43.91377 -77.53244 21919 ft 305 kts 255°
2026-05-09 02:06 43.90746 -77.55812 21918 ft 305 kts 255°
2026-05-09 02:07 43.89460 -77.61055 21915 ft 303 kts 255°
2026-05-09 02:07 43.88833 -77.63603 21916 ft 300 kts 255°
2026-05-09 02:07 43.88233 -77.66049 21916 ft 298 kts 255°
2026-05-09 02:07 43.87620 -77.68543 21916 ft 296 kts 255°
2026-05-09 02:08 43.87026 -77.70957 21915 ft 294 kts 255°
2026-05-09 02:08 43.86420 -77.73416 21914 ft 293 kts 255°
2026-05-09 02:08 43.85826 -77.75825 21913 ft 292 kts 255°
2026-05-09 02:08 43.85227 -77.78249 21913 ft 291 kts 255°
2026-05-09 02:09 43.84639 -77.80631 21913 ft 290 kts 255°
2026-05-09 02:09 43.84081 -77.82889 21913 ft 289 kts 255°
2026-05-09 02:09 43.83501 -77.85231 21879 ft 286 kts 256°
2026-05-09 02:09 43.82916 -77.87594 21475 ft 289 kts 256°
2026-05-09 02:10 43.82328 -77.89958 21074 ft 291 kts 256°
2026-05-09 02:10 43.81730 -77.92357 20667 ft 293 kts 256°
2026-05-09 02:10 43.81129 -77.94772 20257 ft 294 kts 256°
2026-05-09 02:10 43.80524 -77.97196 19845 ft 296 kts 255°
2026-05-09 02:11 43.79916 -77.99636 19430 ft 297 kts 255°
2026-05-09 02:11 43.79285 -78.02166 19000 ft 298 kts 256°
2026-05-09 02:11 43.78642 -78.04737 18563 ft 299 kts 256°
2026-05-09 02:11 43.78002 -78.07297 18128 ft 300 kts 256°
2026-05-09 02:12 43.77364 -78.09849 17694 ft 301 kts 256°
2026-05-09 02:12 43.76744 -78.12338 17271 ft 302 kts 256°
2026-05-09 02:12 43.76123 -78.14843 16845 ft 303 kts 255°
2026-05-09 02:12 43.75507 -78.17325 16423 ft 304 kts 255°
2026-05-09 02:13 43.74877 -78.19850 15993 ft 305 kts 255°
2026-05-09 02:13 43.74254 -78.22334 15570 ft 305 kts 255°
2026-05-09 02:13 43.73626 -78.24830 15144 ft 306 kts 255°
2026-05-09 02:13 43.72993 -78.27340 14717 ft 307 kts 255°
2026-05-09 02:14 43.72363 -78.29835 14293 ft 307 kts 255°
2026-05-09 02:14 43.71849 -78.32354 13873 ft 306 kts 261°
2026-05-09 02:14 43.71578 -78.35021 13507 ft 303 kts 266°
2026-05-09 02:14 43.71401 -78.37647 13148 ft 300 kts 267°
2026-05-09 02:15 43.71238 -78.40353 12778 ft 298 kts 268°
2026-05-09 02:15 43.71077 -78.43019 12412 ft 296 kts 267°
2026-05-09 02:15 43.70917 -78.45678 12047 ft 295 kts 267°
2026-05-09 02:15 43.70762 -78.48219 11698 ft 294 kts 267°
2026-05-09 02:16 43.70606 -78.50825 11340 ft 293 kts 267°
2026-05-09 02:16 43.70453 -78.53325 10996 ft 292 kts 266°
2026-05-09 02:16 43.70292 -78.55897 10643 ft 291 kts 266°
2026-05-09 02:16 43.70133 -78.58407 10298 ft 290 kts 266°
2026-05-09 02:17 43.69969 -78.60965 9946 ft 289 kts 266°
2026-05-09 02:17 43.69808 -78.63445 9601 ft 280 kts 265°
2026-05-09 02:17 43.69654 -78.65785 9277 ft 267 kts 265°
2026-05-09 02:17 43.69503 -78.68052 8965 ft 256 kts 265°
2026-05-09 02:18 43.69362 -78.70167 8696 ft 255 kts 265°
2026-05-09 02:18 43.69211 -78.72432 8358 ft 256 kts 265°
2026-05-09 02:18 43.69060 -78.74670 8016 ft 258 kts 265°
2026-05-09 02:18 43.68920 -78.76765 7694 ft 256 kts 265°
2026-05-09 02:19 43.68772 -78.78987 7348 ft 250 kts 264°
2026-05-09 02:19 43.68631 -78.81081 7057 ft 245 kts 264°
2026-05-09 02:19 43.68404 -78.83154 6829 ft 240 kts 257°
2026-05-09 02:19 43.67987 -78.85118 6603 ft 235 kts 252°
2026-05-09 02:20 43.67521 -78.87008 6376 ft 229 kts 251°
2026-05-09 02:20 43.67054 -78.88846 6083 ft 228 kts 251°
2026-05-09 02:20 43.66577 -78.90696 5763 ft 227 kts 251°
2026-05-09 02:20 43.66099 -78.92544 5446 ft 227 kts 251°
2026-05-09 02:21 43.65656 -78.94408 5127 ft 226 kts 257°
2026-05-09 02:21 43.65520 -78.96368 4811 ft 228 kts 270°
2026-05-09 02:21 43.65627 -78.98353 4493 ft 229 kts 275°
2026-05-09 02:21 43.65798 -79.00358 4169 ft 227 kts 276°
2026-05-09 02:22 43.65993 -79.02334 4051 ft 221 kts 276°
2026-05-09 02:22 43.66197 -79.04189 4026 ft 215 kts 277°
2026-05-09 02:22 43.66424 -79.06169 4041 ft 210 kts 277°
2026-05-09 02:22 43.66646 -79.08092 4040 ft 206 kts 277°
2026-05-09 02:23 43.66865 -79.09978 4038 ft 203 kts 277°
2026-05-09 02:23 43.67080 -79.11899 4033 ft 199 kts 276°
2026-05-09 02:23 43.67198 -79.13794 4064 ft 193 kts 270°
2026-05-09 02:23 43.67182 -79.15564 4077 ft 187 kts 266°
2026-05-09 02:24 43.67092 -79.17272 3950 ft 187 kts 263°
2026-05-09 02:24 43.66938 -79.18987 3706 ft 182 kts 261°
2026-05-09 02:24 43.66733 -79.20693 3446 ft 177 kts 258°
2026-05-09 02:24 43.66513 -79.22220 3189 ft 159 kts 257°
2026-05-09 02:25 43.66280 -79.23638 2955 ft 144 kts 255°
2026-05-09 02:25 43.66055 -79.24876 2786 ft 140 kts 253°
2026-05-09 02:25 43.65810 -79.26121 2582 ft 133 kts 253°
2026-05-09 02:25 43.65570 -79.27281 2425 ft 128 kts 252°
2026-05-09 02:26 43.65338 -79.28382 2217 ft 125 kts 252°
2026-05-09 02:26 43.65104 -79.29473 1985 ft 118 kts 252°
2026-05-09 02:26 43.64890 -79.30495 1797 ft 116 kts 252°
2026-05-09 02:26 43.64705 -79.31509 1631 ft 109 kts 253°
2026-05-09 02:27 43.64514 -79.32542 1470 ft 116 kts 253°
2026-05-09 02:27 43.64304 -79.33606 1273 ft 119 kts 252°
2026-05-09 02:27 43.64087 -79.34706 1137 ft 115 kts 252°
2026-05-09 02:27 43.64027 -79.34999 1111 ft 116 kts 252°
2026-05-09 02:28 43.63788 -79.36085 914 ft 121 kts 249°
2026-05-09 02:28 43.63513 -79.37172 677 ft 120 kts 248°
2026-05-09 02:28 43.63264 -79.38237 453 ft 113 kts 249°
2026-05-09 02:28 43.63017 -79.39229 248 ft 100 kts 250°
2026-05-09 02:29 43.62842 -79.39936 246 ft 57 kts 250°
2026-05-09 02:29 43.62778 -79.40198 246 ft 19 kts 251°
2026-05-09 02:29 43.62754 -79.40303 246 ft 3 kts 273°
2026-05-09 02:29 43.62803 -79.40330 246 ft 12 kts 358°
2026-05-09 02:30 43.62874 -79.40272 246 ft 13 kts 39°
2026-05-09 02:30 43.62944 -79.40189 246 ft 14 kts 41°
2026-05-09 02:30 43.63007 -79.40091 246 ft 14 kts 55°
2026-05-09 02:30 43.63008 -79.39966 246 ft 14 kts 113°
2026-05-09 02:31 43.62971 -79.39845 246 ft 14 kts 103°
2026-05-09 02:31 43.62986 -79.39722 246 ft 13 kts 70°
2026-05-09 02:31 43.63014 -79.39627 246 ft 5 kts 43°
2026-05-09 02:31 43.63037 -79.39618 246 ft 3 kts
2026-05-09 02:32 43.63063 -79.39613 246 ft 4 kts
2026-05-09 02:32 43.63068 -79.39612 246 ft 0 kts